Regional Weather Roundup
Issued by NWS Goodland, KS

Home | Current Version | Previous Version | Text Only | Print | Product List | Glossary Off
Versions: 1 2 3 4 5 6 7 8 9 10 11 12 13 14 15 16 17 18 19 20 21 22 23 24 25 26 27 28 29 30 31 32 33 34 35 36 37 38 39 40 41 42 43 44 45 46 47 48 49 50

000
ASUS43 KGLD 220659
RWRGLD

GOODLAND FORECAST AREA HOURLY WEATHER ROUNDUP
NATIONAL WEATHER SERVICE GOODLAND KS
1200 AM MST WED FEB 22 2017

...OFFICIAL OBSERVATIONS...

CITY           SKY/WX    TMP DP  RH WIND       PRES   REMARKS
GOODLAND KS    CLOUDY    61  11  14 W21G28    29.83F
HILL CITY KS   CLOUDY    57  25  29 W6        29.79F
IMPERIAL NEB   CLOUDY    36  23  59 NW5       29.79S
MCCOOK NEB     CLOUDY    55  27  34 SW14      29.75F
AKRON CO       CLEAR     52  11  19 SW18      29.83F
BURLINGTON CO  CLOUDY    61  12  14 W25       29.89S
LIMON CO       CLOUDY    46  12  25 NW9       29.92S
$$

...UNOFFICIAL OBSERVATIONS...

CITY           SKY/WX    TMP DP  RH WIND       PRES   REMARKS
LENORA KS        N/A     57  32  39 SW12        N/A
NORTON KS      CLEAR     55  19  24 S9        29.76
SHARON SPRINGS   N/A     46  21  36 SW8         N/A
TRENTON NEB      N/A     45  32  60 CALM        N/A
KIT CARSON CO    N/A     52  14  22 CALM        N/A
YUMA CO        FAIR      46  14  27 SW12      29.82S
$$




USA.gov is the U.S. government's official web portal to all federal, state and local government web resources and services.